sat.trackr.live / text

‹ back to catalog

STARLINK-31961

NORAD 59894 · 2024-100K

PAYLOAD ACTIVE UNKNOWN

§ Identity

Operator
Country
US
Launch date
2024-05-28
Launch site
AFETR
Launch vehicle
Mass (kg)
RCS (m²)

Purposes: comms

External: N2YO · Heavens-Above · Gunter

§ Orbital elements

Epoch: 2026-09-21T21:18:10.145952Z

Period
94.27 min
Inclination
43.0014°
Eccentricity
0.0000880
Mean motion
15.27576591 rev/d
Perigee alt
482.5 km
Apogee alt
483.7 km
Semi-major
6,861.2 km
B*
1.5302e-5
RAAN
90.3813°
Arg perigee
260.7845°
Mean anomaly
99.2907°
Rev number
13,124

§ Raw data

STARLINK-319611 59894U 24100K   26264.88761743  .00000159  00000+0  15302-4 0  99952 59894  43.0014  90.3813 0000880 260.7845  99.2907 15.27576591131246

JSON: /api/v1/satellites/59894 · /tle

For live sub-satellite position, see the globe view (requires WebGL).

§ Visibility from observer

Set your observer location to see the next 7 days of passes ≥ 10°. The values pass through the URL so the page stays shareable.

No JS? Fill the form by hand. The geolocation button needs JavaScript.